Regional Weather Roundup
Issued by NWS Cleveland, OH

Home | Current Version | Previous Version | Text Only | Print | Product List | Glossary On
Versions: 1 2 3 4 5 6 7 8 9 10 11 12 13 14 15 16 17 18 19 20 21 22 23 24 25 26 27 28 29 30 31 32 33 34 35 36 37 38 39 40 41 42 43 44 45 46 47 48 49 50
000
ASUS41 KCLE 141012
RWRCLE
OHIO REGIONAL WEATHER ROUNDUP
NATIONAL WEATHER SERVICE WILMINGTON, OH
500 AM EST SUN FEB 14 2016

NOTE: "FAIR" INDICATES FEW OR NO CLOUDS BELOW 12,000 FEET WITH NO
SIGNIFICANT WEATHER AND/OR OBSTRUCTIONS TO VISIBILITY.

OHZ001>008-015>018-024>027-034-035-043-044-141100-
   NORTHWEST OHIO

CITY           SKY/WX    TMP DP  RH WIND       PRES   REMARKS
DEFIANCE       FAIR      11   5  77 E5        30.47F WCI   3
FINDLAY        FAIR       5   1  83 CALM      30.45F
TOLEDO EXPRESS FAIR       5   0  79 CALM      30.48S
TOLEDO EXEC    FAIR       8   0  69 CALM      30.49S
LIMA           FAIR       3  -1  83 CALM      30.43F
$$

OHZ009>014-019>023-028>033-038-089-141100-
   NORTHEAST OHIO

CITY           SKY/WX    TMP DP  RH WIND       PRES   REMARKS
CLE-HOPKINS    FLURRIES   4  -1  80 S3        30.49S
CLE-LAKEFRONT  FAIR      14  -1  51 NW10      30.47S WCI   1
CUY CO. ARPT   NOT AVBL
LORAIN-ELYRIA  FAIR      -5  -8  87 SW5       30.47S WCI -16
ASHTABULA      LGT SNOW  11   6  81 N3        30.44R
AKRON-CANTON   FAIR      -3  -6  87 W3        30.42S
WOOSTER        FAIR      -4  -7  87 CALM      30.44S FOG
MANSFIELD      FAIR       3   2  95 CALM      30.41F
YOUNGSTOWN     FAIR       1  -3  83 SW5       30.42S WCI  -9
$$

OHZ042-051>053-060>062-070>072-077>081-141100-
  SOUTHWEST OHIO

CITY           SKY/WX    TMP DP  RH WIND       PRES   REMARKS
CINC-COVINGTON CLOUDY    13   3  64 E7        30.45S WCI   3
CINC-LUNKEN    FAIR      13   3  64 CALM      30.51S
HAMILTON       FAIR      12   2  64 E3        30.49S
DAYTON         MOCLDY     6   1  80 E3        30.43F
WRIGHT-PAT AFB CLOUDY     6  -1  73 CALM      30.44F
DAYTON GENERAL FAIR       8  -1  66 E3        30.43S
WILMINGTON     FAIR       6  -1  73 E3        30.43S
$$

OHZ036-037-039>041-045>050-054>059-063>069-073>076-082>088-141100-
  CENTRAL AND SOUTHEAST OHIO

CITY           SKY/WX    TMP DP  RH WIND       PRES   REMARKS
COLUMBUS       MOCLDY     4  -2  76 CALM      30.46F
OSU AIRPORT    FAIR       3  -1  83 CALM      30.45F
BOLTON FIELD   FAIR       3  -1  84 CALM      30.45S
RICKENBACK AFB FAIR       1  -3  85 CALM      30.47S
NEWARK         FAIR       1  -5  75 CALM      30.45F
MARION         FAIR       3  -2  79 CALM      30.45S
LANCASTER      FAIR      -1  -6  79 CALM      30.46F
ZANESVILLE     FAIR       1  -5  75 CALM      30.46S
NEW PHILLY     FAIR       1  32 100 CALM      30.47S
$$



USA.gov is the U.S. government's official web portal to all federal, state and local government web resources and services.